Location: McNierney
(34.1937°N, 106.9061°W)
Time: 15:09:28
(UTC+00:00)

Cosmos 44 - Pass Details

Date: 11 December 2025
Orbit: 572 x 779 km, 65.1° (Epoch: 19 January)

Event Time Altitude Azimuth Distance (km) Brightness Sun altitude
Rises 13:17:17 0° 199° (SSW) 2,821 6.5 -9.6°
Reaches altitude 10° 13:19:29 10° 195° (SSW) 1,947 5.7 -9.1°
Maximum altitude 13:23:49 62° 115° (ESE) 713 3.7 -8.3°
Drops below altitude 10° 13:28:26 10° 35° (NE) 2,080 5.9 -7.4°
Sets 13:30:51 0° 33° (NNE) 3,033 6.7 -7.0°
